Wind_Speed
15 22 15 21 18 18 20 19 18 24 22 21 22 26 24 20 19 19 18 15 13 13 16 14 10 6 3 2 2 4 5 6 5
25 19 18 22 24 20 22 23 23 23 26 24 24 27 28 24 20 19 19 19 18 15 16 15 13 9 6 2 1 3 3 3 4
10 12 15 17 22 29 26 24 26 27 30 29 27 28 28 28 25 23 22 20 20 18 16 14 14 10 8 5 2 1 1 2 2
26 17 6 12 20 31 35 29 25 24 25 28 29 27 28 29 28 25 24 22 22 21 19 17 16 13 11 8 6 5 3 3 2
29 27 20 15 12 18 31 33 30 25 24 24 28 32 29 28 29 29 27 25 22 21 20 20 18 16 13 11 10 8 7 7 6
34 30 23 20 14 16 33 38 38 31 25 26 26 29 32 30 30 30 27 27 26 24 22 22 22 19 17 15 15 13 11 10 9
33 33 28 29 23 23 24 33 41 33 29 29 29 27 31 33 30 29 31 31 30 29 26 24 22 21 20 20 18 16 14 12 12
33 36 37 39 31 24 24 31 36 43 41 35 31 28 29 31 34 34 33 34 32 30 29 26 24 24 22 20 19 18 16 15 14
33 36 40 37 30 20 19 32 34 34 38 36 33 27 27 29 29 34 34 33 32 33 31 28 26 24 22 20 19 20 20 17 16
38 42 33 37 43 43 37 39 39 44 40 36 32 30 26 28 28 29 34 35 34 32 31 31 28 26 24 21 21 22 22 20 19
47 44 50 40 33 24 45 40 45 47 42 39 37 31 29 27 29 30 31 35 35 33 33 32 30 29 27 26 24 23 24 24 22
59 51 50 56 41 40 33 34 38 40 46 51 42 37 33 30 26 27 30 32 34 35 35 34 31 31 31 28 27 26 26 27 23
67 58 55 56 52 50 42 38 39 27 41 49 37 35 36 33 28 25 24 30 34 35 36 36 36 34 33 31 31 30 28 27 25
70 65 61 57 57 56 54 55 49 38 37 31 41 52 49 41 30 26 25 29 34 34 34 36 35 33 33 32 32 32 32 29 26
77 72 66 66 62 59 56 55 60 53 51 43 43 48 36 38 32 28 26 28 33 34 34 34 32 32 34 34 34 35 34 32 29
80 81 77 66 71 73 70 69 68 64 52 46 29 25 39 43 42 37 28 26 27 31 33 34 32 32 32 33 36 37 37 35 33
82 82 85 73 71 65 69 72 72 66 53 52 48 41 40 42 41 29 34 32 27 27 31 34 32 31 31 32 35 35 36 36 37
83 85 88 87 73 63 72 76 64 61 56 52 47 48 45 56 48 47 44 38 34 30 30 34 32 32 34 35 33 32 36 38 38
80 83 87 90 87 72 64 59 75 59 68 52 54 59 55 43 43 47 42 39 41 33 32 32 30 33 34 35 35 34 33 33 36
78 82 81 85 90 88 72 68 62 60 52 55 54 46 52 55 55 50 48 43 37 37 38 34 34 31 29 30 31 34 34 35 36
Wind_Direction
251 201 232 231 209 184 192 185 189 197 197 192 194 196 191 190 187 189 198 191 189 183 187 180 183 185 179 165 98 72 77 79 85
257 255 258 241 221 199 213 209 188 191 200 198 195 194 201 197 193 195 201 198 194 194 192 186 192 198 206 225 55 50 84 92 95
234 256 230 238 242 234 219 221 211 198 193 198 200 198 197 199 196 197 203 210 203 203 202 200 203 205 212 214 225 289 169 157 94
194 202 208 247 260 232 224 220 219 205 201 199 202 202 201 199 197 201 203 211 213 208 213 212 217 211 215 218 230 253 247 227 218
204 195 208 226 281 260 232 221 219 214 208 205 204 200 201 203 201 200 203 206 213 216 212 225 231 230 224 221 234 242 251 242 245
208 207 208 211 223 245 217 211 238 219 215 213 211 208 200 204 204 201 205 207 210 213 212 219 228 231 236 235 234 233 234 241 235
215 212 214 205 214 228 215 226 202 206 225 216 209 209 207 200 207 205 203 209 211 214 213 211 221 227 229 234 236 236 233 240 244
210 217 218 211 225 229 206 207 223 224 207 210 206 202 208 201 204 207 209 208 212 216 220 217 214 225 230 233 238 238 236 236 235
216 214 220 224 226 225 201 189 181 202 205 201 201 196 199 204 202 210 209 213 213 216 221 224 223 222 228 231 233 237 240 241 236
210 216 218 220 228 228 225 206 204 208 209 206 209 202 200 203 200 203 209 211 215 217 220 223 225 227 229 234 234 235 235 239 241
213 207 222 229 232 224 205 209 210 211 213 213 206 200 201 203 206 201 203 207 211 216 220 223 226 231 230 231 238 240 238 238 238
217 210 208 225 220 215 189 194 205 210 220 210 226 208 207 201 200 205 207 204 206 211 218 221 224 227 230 232 237 241 241 239 237
217 214 206 213 223 219 218 215 227 209 224 207 221 209 212 213 200 199 199 206 205 208 214 218 220 225 229 230 233 239 244 243 238
219 215 208 209 221 231 232 224 218 215 227 236 225 234 231 217 203 197 193 201 206 205 213 218 220 222 228 229 231 236 242 245 242
224 218 214 206 215 225 232 238 244 240 233 250 232 243 218 214 202 203 208 209 207 205 211 217 221 226 230 231 233 236 241 244 243
225 227 217 212 211 221 227 235 244 248 248 242 206 211 206 202 206 202 204 216 219 207 212 217 220 225 228 230 233 236 239 242 242
221 226 228 224 214 223 227 228 232 240 235 231 221 207 208 206 216 219 207 212 220 222 215 214 216 222 222 225 229 234 238 241 243
224 221 225 226 231 231 219 223 226 230 229 232 230 219 235 215 209 212 212 210 217 220 221 218 212 217 222 225 227 232 235 239 242
225 224 222 225 226 229 236 241 219 223 224 230 225 220 207 225 228 221 224 221 213 220 222 221 220 221 223 228 229 233 237 240 243
231 225 224 223 225 226 225 232 241 233 234 225 232 224 222 224 221 222 222 223 227 222 224 223 225 228 230 233 237 239 240 243 243
Height
5884 5888 5890 5893 5897 5900 5900 5902 5905 5910 5913 5915 5920 5924 5927 5932 5936 5941 5944 5946 5949 5952 5954 5954 5955 5957 5958 5959 5960 5961 5960 5960 5960
5878 5882 5888 5891 5895 5899 5902 5901 5901 5904 5909 5912 5916 5918 5923 5929 5933 5938 5942 5944 5948 5951 5953 5954 5956 5957 5958 5958 5959 5960 5961 5961 5961
5872 5877 5881 5887 5892 5895 5900 5902 5900 5900 5900 5907 5912 5914 5918 5923 5929 5933 5938 5941 5944 5947 5950 5952 5955 5955 5957 5957 5959 5960 5961 5962 5962
5860 5868 5875 5881 5884 5886 5891 5898 5901 5900 5902 5903 5907 5912 5914 5918 5923 5928 5934 5938 5941 5944 5946 5950 5952 5955 5956 5957 5958 5959 5960 5961 5962
5854 5857 5863 5871 5875 5878 5887 5895 5897 5900 5901 5902 5905 5905 5909 5914 5918 5922 5927 5933 5937 5941 5943 5946 5949 5953 5955 5957 5958 5958 5959 5960 5961
5847 5852 5856 5863 5867 5872 5877 5885 5894 5897 5898 5899 5902 5904 5904 5909 5914 5919 5924 5928 5933 5937 5940 5942 5946 5950 5953 5955 5957 5958 5958 5958 5959
5842 5849 5852 5854 5859 5864 5874 5875 5880 5886 5892 5895 5896 5899 5900 5901 5909 5914 5918 5922 5926 5931 5935 5938 5940 5944 5948 5951 5953 5955 5956 5956 5956
5831 5837 5840 5844 5850 5855 5862 5866 5869 5874 5881 5886 5890 5892 5895 5894 5900 5906 5910 5916 5921 5926 5930 5934 5937 5938 5942 5946 5949 5951 5953 5954 5954
5820 5824 5833 5839 5847 5850 5856 5859 5857 5866 5869 5875 5881 5886 5888 5889 5892 5899 5905 5911 5916 5919 5924 5929 5933 5936 5938 5940 5943 5945 5947 5949 5950
5809 5814 5822 5828 5835 5841 5845 5851 5854 5858 5864 5870 5878 5882 5883 5885 5885 5890 5896 5902 5908 5914 5918 5922 5927 5930 5933 5936 5938 5939 5941 5943 5945
5800 5805 5813 5820 5826 5829 5830 5837 5845 5851 5859 5865 5871 5873 5878 5881 5881 5881 5886 5891 5899 5906 5911 5915 5920 5924 5927 5929 5932 5934 5936 5937 5940
5789 5796 5802 5810 5818 5823 5824 5828 5836 5842 5847 5854 5859 5866 5871 5872 5872 5876 5880 5884 5889 5897 5904 5908 5912 5916 5919 5923 5926 5928 5929 5931 5934
5776 5783 5791 5799 5804 5811 5818 5823 5823 5832 5836 5844 5852 5857 5865 5870 5870 5871 5875 5879 5881 5886 5894 5901 5902 5907 5912 5916 5918 5921 5923 5925 5928
5762 5770 5776 5785 5794 5797 5802 5811 5820 5827 5833 5839 5847 5852 5856 5862 5863 5867 5868 5872 5875 5878 5886 5892 5896 5900 5904 5908 5911 5913 5915 5917 5921
5746 5754 5763 5769 5781 5787 5791 5793 5802 5814 5825 5833 5837 5844 5844 5853 5857 5860 5864 5868 5870 5870 5877 5884 5888 5892 5896 5901 5904 5905 5907 5910 5913
5733 5740 5751 5753 5764 5772 5778 5784 5789 5799 5813 5818 5827 5829 5836 5843 5846 5850 5856 5863 5867 5865 5870 5876 5880 5884 5888 5892 5895 5896 5899 5902 5904
5714 5723 5730 5740 5748 5754 5765 5772 5780 5791 5803 5809 5813 5822 5830 5835 5838 5833 5846 5853 5857 5860 5862 5868 5870 5876 5880 5883 5885 5888 5891 5893 5895
5694 5705 5714 5725 5733 5738 5747 5755 5765 5777 5789 5798 5804 5811 5818 5827 5828 5833 5838 5841 5846 5852 5856 5858 5860 5867 5870 5874 5877 5880 5880 5883 5886
5677 5685 5697 5709 5721 5728 5731 5734 5752 5759 5771 5778 5789 5800 5809 5811 5821 5826 5830 5831 5836 5843 5847 5849 5853 5858 5861 5866 5869 5870 5872 5875 5877
5658 5671 5681 5692 5704 5716 5722 5731 5734 5745 5756 5765 5774 5784 5792 5800 5808 5812 5818 5823 5829 5834 5839 5841 5846 5849 5853 5857 5860 5862 5864 5866 5867